GFSSE_850_temp_042.txt.gz
Temp
17 17 16 16 17 17 17 17 17 17 17 17 17 18 17 16 16 16 16 15 14 14 14 15 14 14 14 14 14 14 13 13 13 14 14 13 13 13 12 13 12 12 12
15 17 18 17 16 16 17 17 17 17 17 17 17 17 17 16 16 16 15 15 14 14 14 14 14 14 14 14 14 13 13 13 12 13 13 13 13 13 13 13 13 12 12
14 15 15 15 16 16 16 16 16 16 17 17 17 17 16 16 16 15 15 15 14 14 14 14 14 14 14 13 13 13 13 13 13 12 12 12 11 12 12 12 12 12 12
15 16 15 15 14 15 15 16 16 16 16 17 17 16 16 16 15 15 15 14 14 14 14 14 13 13 13 13 13 13 13 13 13 12 11 11 10 10 10 12 11 11 12
16 16 15 15 14 15 15 15 15 16 17 17 16 16 16 15 15 15 14 14 14 14 14 13 13 13 13 13 13 13 13 13 12 13 11 11 11 11 11 11 10 10 10
15 15 15 15 14 14 14 15 15 16 17 16 16 16 15 15 15 15 14 14 14 14 13 13 13 13 13 13 13 13 14 13 12 13 13 12 11 11 11 11 11 11 10
16 16 16 14 15 15 15 14 15 16 16 15 15 15 14 15 15 15 14 14 14 14 13 13 13 13 13 13 13 13 14 13 13 12 12 12 11 11 11 11 11 11 10
14 15 14 14 13 15 14 14 15 15 15 15 15 15 14 15 14 14 14 14 14 14 13 13 13 12 12 13 13 13 13 13 12 12 11 11 10 10 10 10 10 10 10
13 13 13 13 13 13 14 14 15 15 15 14 14 14 14 14 14 14 14 14 13 13 13 13 12 12 12 13 13 12 12 13 13 12 11 11 10 9 9 9 9 9 9
13 13 11 12 12 11 13 14 14 14 14 14 14 14 14 14 14 14 14 13 13 13 13 12 12 12 12 12 12 12 12 12 12 12 11 11 10 8 8 8 8 8 8
13 13 12 12 12 12 10 12 13 14 15 13 13 13 13 13 13 13 13 13 13 13 12 12 12 12 12 12 12 12 12 12 12 12 11 11 9 8 8 8 7 7 7
12 12 11 11 10 10 11 11 13 14 13 13 13 13 12 12 12 12 12 12 12 12 12 12 12 12 11 11 11 11 11 11 11 11 11 10 9 8 7 7 7 7 7
12 11 11 10 10 10 11 11 12 11 12 13 12 12 12 12 12 12 12 12 12 12 12 11 11 11 11 12 12 12 11 11 11 11 10 10 10 9 8 8 6 6 6
11 11 10 10 10 10 11 11 10 11 12 11 12 12 12 12 12 12 12 12 12 11 11 11 11 11 12 12 12 12 12 12 11 10 10 10 10 8 8 7 7 6 6
10 10 10 9 9 9 10 10 10 10 10 11 12 11 12 13 13 12 12 12 11 11 11 11 11 11 11 12 12 12 12 11 11 10 9 9 9 8 8 7 7 6 5
9 9 8 8 7 8 8 9 9 9 9 11 11 11 12 12 12 12 11 12 11 11 11 11 10 11 10 11 12 12 11 11 10 9 9 9 8 8 8 7 6 6 5
8 8 7 7 8 8 8 8 8 8 9 10 10 11 12 12 11 11 11 11 11 11 11 11 10 10 11 10 11 11 9 9 9 10 8 8 8 7 7 7 6 5 5
8 7 7 7 7 8 8 8 8 8 9 10 11 11 12 12 11 11 11 11 11 11 11 11 11 10 10 10 10 9 9 9 9 9 8 7 6 7 7 6 6 6 5
8 8 7 8 9 9 9 9 9 9 10 10 11 12 12 12 11 12 11 11 11 11 10 10 10 10 10 10 9 9 10 9 8 7 7 8 8 6 5 5 5 5 5
8 9 8 9 8 9 10 9 10 11 11 11 12 12 11 12 11 11 11 11 11 10 10 10 10 10 10 10 10 10 9 9 8 8 8 7 6 7 5 5 4 4 4
9 9 9 9 9 9 9 10 11 11 11 12 12 11 12 12 11 11 11 11 11 10 10 10 10 10 10 10 10 9 9 8 8 8 7 6 6 5 5 5 4 4 4
10 10 10 10 10 10 11 11 12 12 13 12 12 12 12 12 11 11 11 10 11 10 10 9 10 9 9 9 9 9 9 8 7 8 7 6 6 5 5 4 4 3 3
12 10 10 10 11 11 11 12 12 12 12 12 12 12 12 11 11 11 11 10 11 10 10 9 9 9 9 9 9 9 9 9 8 7 7 7 5 6 5 4 3 3 3
12 11 11 11 11 11 12 12 12 12 13 12 12 12 12 12 11 11 10 10 10 10 9 9 9 9 9 8 8 8 8 7 7 7 6 6 6 5 5 4 4 3 2
13 12 12 12 12 12 12 13 13 13 13 13 13 12 12 11 11 12 10 10 10 10 10 8 8 8 8 8 8 7 7 7 6 6 6 6 5 5 5 4 3 2 2
14 13 13 13 13 13 13 13 13 13 13 13 12 11 11 11 11 11 10 10 10 9 9 8 8 8 8 8 8 7 7 6 6 6 6 5 6 6 5 4 3 3 2

GFSSE_850_temp_045.txt.gz
Temp
15 15 16 17 17 18 18 18 17 17 17 17 18 17 17 17 16 17 16 15 15 15 15 15 15 15 14 14 13 13 12 12 13 14 13 13 13 13 13 12 12 12 12
18 15 16 16 16 17 17 17 17 17 17 17 17 17 17 17 16 15 15 14 15 15 14 14 14 14 13 13 12 12 12 12 12 13 14 13 13 13 13 13 12 12 12
18 15 14 15 16 16 16 16 17 17 17 17 17 17 17 16 16 15 14 14 14 14 14 14 14 14 13 13 12 12 11 11 10 12 13 11 11 12 12 13 13 12 12
16 17 15 14 15 16 16 16 16 17 17 17 17 17 16 16 15 15 15 14 14 14 14 14 14 13 13 13 12 12 12 12 12 13 13 12 11 10 11 11 11 11 10
15 14 14 15 15 16 16 16 16 16 17 16 17 16 16 15 15 15 15 14 14 14 14 14 14 13 13 13 13 12 12 12 13 13 13 12 12 10 11 11 11 10 9
15 15 15 15 15 15 15 15 15 16 16 16 16 16 15 15 15 15 15 14 14 14 14 13 14 13 13 13 13 13 12 13 13 12 13 12 12 10 11 11 10 8 8
16 16 17 14 14 14 14 15 15 16 16 16 16 15 15 15 14 14 14 14 14 14 13 13 13 13 13 13 13 12 12 12 13 12 13 13 12 11 11 10 10 9 9
15 16 17 14 13 14 14 13 15 16 16 16 15 15 15 15 14 14 14 14 14 13 13 13 13 13 13 13 13 12 11 12 12 12 12 12 11 10 10 10 10 10 10
14 14 13 13 13 14 13 14 14 15 15 15 15 14 14 14 14 14 14 14 13 13 13 13 13 13 13 13 13 13 12 12 12 12 11 12 11 9 8 9 9 9 9
13 13 13 13 13 12 12 10 14 15 15 14 14 14 14 14 14 14 14 13 13 13 12 12 12 12 12 12 12 12 11 11 11 11 11 11 11 8 8 8 8 8 8
13 12 13 14 13 11 10 11 14 14 14 14 13 13 13 13 13 13 13 13 13 12 12 12 12 12 12 12 12 12 11 11 12 12 11 11 11 10 9 9 8 7 6
13 12 12 12 13 12 12 11 13 13 14 13 13 13 12 13 13 13 13 12 12 12 12 12 11 11 11 12 12 12 12 11 11 11 11 11 11 9 8 7 7 7 7
12 12 11 11 12 11 11 11 12 13 13 13 13 12 12 12 12 12 12 12 12 12 12 12 11 11 11 11 12 11 11 12 11 11 11 10 10 7 7 7 8 8 7
11 11 11 11 11 11 10 11 11 12 13 13 12 12 12 12 12 12 13 12 12 12 11 11 11 11 11 12 12 12 11 11 11 11 10 10 10 9 8 8 7 6 6
11 11 11 10 11 11 10 10 10 11 12 11 12 12 13 13 13 13 12 12 12 11 11 11 11 11 12 12 12 12 12 12 11 11 10 9 10 9 9 8 7 6 6
11 11 10 10 10 10 10 10 11 11 11 11 11 12 12 13 13 12 12 12 11 11 11 11 11 11 11 12 12 12 12 11 10 11 10 9 8 8 8 7 7 6 6
9 10 10 10 9 9 10 10 10 10 9 11 11 11 12 12 12 12 12 12 11 11 11 11 11 10 11 11 11 12 11 11 10 9 9 8 8 8 8 8 7 6 6
9 8 8 8 8 8 9 9 10 10 9 10 10 11 13 12 11 12 11 11 11 11 11 11 11 11 10 10 11 11 11 11 10 9 8 7 7 8 8 7 6 6 5
8 8 8 7 7 8 8 9 8 8 9 9 10 12 12 11 12 12 11 11 11 11 11 11 11 10 10 10 10 10 11 10 10 9 9 8 7 7 7 6 6 5 5
8 7 8 8 8 8 8 8 8 9 9 10 11 12 12 11 12 12 11 11 11 11 11 11 10 10 10 10 10 10 10 10 9 9 9 9 8 7 6 6 5 5 5
8 8 8 8 8 9 9 8 9 9 9 10 11 12 11 11 12 12 12 11 11 11 11 10 10 10 10 10 10 10 9 9 9 8 8 8 7 8 6 6 5 5 4
9 9 8 8 8 9 9 10 10 10 10 11 11 11 12 12 12 11 11 11 11 11 10 10 10 10 10 10 10 9 9 8 8 8 8 8 7 6 6 6 5 4 4
9 9 10 10 10 9 9 9 10 10 11 11 11 12 12 12 12 11 12 11 11 11 11 10 10 10 10 10 9 9 9 9 8 8 8 7 6 6 6 5 5 5 4
12 11 10 10 10 10 10 10 11 11 12 12 12 12 13 12 12 12 12 11 12 12 10 10 10 10 9 8 8 8 8 8 8 7 7 6 6 6 6 6 5 4 4
12 12 12 12 11 12 11 11 12 12 12 13 12 12 12 12 12 11 12 12 11 10 10 10 9 9 8 8 8 8 8 7 7 7 6 6 6 5 5 5 5 4 3
13 12 12 12 11 11 11 12 12 11 12 12 12 12 12 12 12 12 12 12 11 10 9 9 9 9 8 8 7 7 7 7 6 6 6 6 6 5 5 4 4 4 3

GFSSE_850_temp_048.txt.gz
Temp
15 16 16 17 18 17 18 17 17 17 18 18 18 17 16 16 16 17 16 16 15 15 15 14 14 14 14 13 13 13 13 13 13 13 13 13 12 12 12 12 11 12 12
15 15 17 17 17 16 17 16 16 17 18 18 17 16 16 16 17 16 16 15 15 15 14 14 13 13 13 12 13 13 13 13 13 14 13 11 12 13 13 13 13 11 11
15 15 16 16 13 16 16 17 16 17 17 17 17 17 17 17 16 16 15 15 15 15 14 13 13 12 12 12 12 13 13 13 14 14 14 13 11 10 11 12 12 11 10
15 16 17 15 13 14 16 16 16 16 16 16 16 16 16 16 15 15 15 15 15 14 14 13 13 12 11 12 12 13 13 13 13 13 13 13 10 10 10 10 10 10 10
16 15 15 16 15 12 15 15 15 16 16 16 16 16 16 15 15 15 15 15 14 14 14 13 12 12 12 12 12 13 12 13 13 13 13 13 12 9 10 9 9 9 10
14 15 13 13 13 14 14 15 15 16 16 16 16 16 16 15 15 15 15 14 14 14 14 13 13 12 12 12 12 12 12 12 13 13 13 12 12 9 8 8 8 9 9
14 14 17 13 12 12 12 14 15 16 15 15 15 15 15 15 15 15 14 14 14 14 14 13 13 12 12 13 12 12 12 12 12 12 13 12 11 10 9 9 10 11 10
14 14 14 14 13 13 11 14 15 16 15 15 15 15 15 15 15 14 14 14 14 13 13 13 13 12 11 12 12 12 12 12 12 12 12 12 12 12 12 11 11 10 9
14 15 14 14 13 12 11 12 14 15 15 14 14 15 15 15 14 14 14 14 13 13 13 13 13 13 12 11 12 12 12 12 12 11 11 12 11 11 11 10 10 10 9
15 14 13 13 12 11 12 10 11 15 14 14 14 14 14 14 14 14 13 13 13 13 13 13 13 13 12 12 12 12 12 11 11 11 11 11 11 11 9 8 6 7 8
14 14 13 12 13 12 11 11 10 12 14 14 14 14 13 14 14 13 13 13 12 12 12 12 12 12 12 12 12 12 12 11 11 11 11 11 11 11 9 8 6 6 6
13 12 12 12 12 12 11 9 10 13 13 13 13 13 13 14 13 13 13 12 12 12 12 12 11 12 12 12 12 12 11 11 11 11 11 11 10 9 7 6 6 6 6
12 12 11 12 13 12 12 12 10 12 12 13 13 13 13 13 13 13 12 12 12 12 12 12 12 12 12 11 11 11 12 11 11 11 11 10 10 8 7 7 6 6 6
12 12 12 12 11 12 11 11 11 12 12 13 13 13 13 13 13 12 12 12 12 12 12 12 12 12 12 11 11 12 12 11 12 12 11 9 9 8 7 7 6 6 7
12 12 12 11 11 11 11 11 11 12 12 13 13 13 13 13 12 13 13 12 12 12 12 12 11 11 11 11 12 12 12 12 12 11 10 9 9 8 7 7 7 6 5
11 11 11 11 10 10 10 11 11 12 12 13 13 13 13 13 13 13 12 12 12 12 11 11 11 11 11 12 11 11 12 11 11 10 10 9 9 8 8 8 7 6 6
10 10 11 11 10 10 10 10 11 11 12 13 12 12 13 13 12 12 12 12 12 11 11 11 11 11 12 11 11 11 11 11 11 10 10 10 10 9 8 8 7 6 6
10 10 10 10 10 10 10 10 11 11 11 11 12 11 12 12 12 12 12 12 11 11 11 11 11 11 11 11 11 11 11 11 10 10 11 10 10 9 8 7 7 6 6
9 9 9 9 10 9 10 10 9 11 11 11 10 11 12 11 12 12 12 12 11 11 11 11 11 10 10 10 11 11 11 10 10 10 10 10 9 9 8 7 7 6 6
8 8 8 9 9 9 9 8 9 10 11 10 10 11 12 13 12 12 11 11 11 11 11 11 11 10 10 10 10 10 10 10 10 10 9 9 8 8 8 7 7 7 6
7 7 8 8 9 8 8 8 9 10 10 10 10 11 12 12 12 11 12 12 11 11 11 11 11 11 10 10 10 10 10 9 9 10 9 8 8 8 7 7 6 6 6
9 7 7 7 7 8 8 9 9 10 10 11 10 11 11 12 12 12 12 12 11 11 11 11 11 11 10 10 10 10 9 9 9 9 9 8 8 8 8 7 6 6 5
9 8 7 7 8 8 8 8 9 9 9 9 9 11 11 12 12 12 12 12 12 11 11 11 11 11 10 10 10 9 9 9 9 9 8 8 8 8 7 7 6 6 5
11 9 9 8 8 8 8 9 9 9 9 9 10 11 12 12 11 12 12 12 11 11 11 11 11 10 10 9 9 9 9 8 8 8 8 8 7 7 7 6 6 6 5
12 11 11 10 10 10 9 10 10 9 9 10 11 11 12 11 12 12 12 12 11 11 12 11 10 10 10 9 9 9 8 8 8 7 7 7 7 7 6 6 5 5 5
12 12 11 11 10 10 9 10 10 10 10 11 11 11 12 12 12 12 12 11 11 11 12 12 10 10 10 9 9 7 7 8 7 7 7 7 6 6 6 5 5 5 4

GFSSE_850_temp_051.txt.gz
Temp
16 16 16 16 17 17 16 17 16 17 16 16 16 16 16 16 17 17 16 15 15 15 15 14 14 15 14 14 14 13 13 13 14 13 12 11 11 12 12 12 12 12 12
15 16 16 16 16 16 17 17 17 17 16 16 16 16 16 17 17 16 16 15 15 15 14 14 14 14 14 14 13 13 13 13 14 13 12 10 11 12 12 11 11 11 11
15 15 16 16 16 17 17 17 18 17 17 15 15 15 16 16 16 16 16 15 15 15 14 14 14 13 13 13 13 13 13 13 13 13 11 10 10 9 11 11 10 9 9
15 15 16 16 16 16 16 16 16 16 16 14 15 15 15 16 15 15 15 15 15 14 14 13 13 13 13 13 13 13 13 13 13 13 13 10 10 9 9 9 9 8 9
14 15 16 16 16 16 17 17 16 16 16 13 14 15 15 15 15 15 15 15 14 13 13 12 12 13 13 13 12 12 13 13 13 13 13 12 10 9 9 9 9 8 9
15 15 15 16 16 16 14 14 14 16 15 13 13 15 15 15 15 15 15 14 13 13 12 12 12 12 12 12 12 12 12 12 13 13 13 12 11 9 9 9 10 9 9
14 15 15 15 14 14 13 13 11 15 14 13 13 14 15 15 15 14 14 14 13 12 12 12 12 13 12 12 12 12 12 12 12 12 13 12 10 9 9 10 9 9 8
14 15 14 14 12 13 14 13 12 14 13 13 13 14 14 15 14 14 14 13 13 12 12 12 13 13 12 12 12 12 12 12 12 12 12 12 12 10 10 10 10 9 9
14 14 13 13 12 12 12 11 10 14 13 13 13 14 14 14 14 14 14 13 13 12 12 12 12 12 12 12 12 12 11 11 12 12 12 12 11 8 8 9 9 10 10
14 13 14 12 11 11 11 10 10 12 13 13 13 13 14 14 14 13 13 13 13 13 12 12 12 12 12 12 12 12 12 11 12 12 12 11 9 7 7 9 9 10 10
14 13 13 12 12 11 9 11 10 12 13 13 13 13 14 14 13 13 13 13 13 13 13 12 12 12 12 12 12 11 11 12 11 11 11 11 9 8 8 8 7 8 8
12 12 13 12 12 12 13 11 10 11 12 13 12 13 14 13 13 13 13 13 13 13 13 12 12 12 12 12 12 11 12 12 11 11 11 11 10 9 7 6 6 6 5
12 12 11 12 12 12 11 10 10 10 10 12 12 13 14 13 13 12 13 13 13 13 13 13 12 12 12 12 12 12 12 12 11 11 11 10 10 7 7 6 6 5 5
11 11 11 12 12 11 11 11 10 11 10 10 13 13 13 13 13 13 13 13 13 12 12 12 12 12 12 12 12 12 12 12 12 11 11 10 9 7 7 6 6 6 5
11 10 11 10 11 11 10 10 10 11 11 12 13 13 13 13 13 13 13 13 12 12 12 12 12 12 12 11 12 12 12 12 11 11 11 10 9 8 7 7 7 7 6
11 11 11 11 10 11 12 11 11 11 12 12 12 13 13 13 13 13 13 13 12 12 12 12 12 12 11 11 12 12 12 12 11 11 11 10 9 9 8 7 7 7 6
11 11 10 11 10 10 11 11 11 11 12 12 13 13 13 13 13 13 13 12 12 11 12 12 11 11 11 11 11 11 11 11 11 11 10 10 9 9 9 8 8 7 7
10 10 10 10 10 10 11 11 11 11 12 12 12 13 13 13 13 13 12 12 11 11 11 11 11 10 11 11 11 11 11 10 10 10 10 10 9 9 9 8 8 8 7
9 9 9 10 10 10 10 9 10 11 12 12 12 13 12 12 12 12 11 11 11 11 11 11 11 11 11 11 11 10 10 10 10 10 9 9 9 9 9 9 8 7 7
9 9 9 9 10 9 9 9 10 10 11 11 11 12 11 12 11 11 11 11 11 11 11 11 11 11 11 10 10 10 10 10 10 10 9 9 9 9 9 8 8 7 6
8 7 8 8 10 9 9 9 9 9 10 11 11 11 11 11 11 11 12 12 11 11 11 11 11 10 10 10 10 10 10 10 10 9 9 10 10 9 9 8 8 7 6
7 7 7 8 9 8 8 9 10 9 9 10 11 11 11 11 11 12 12 12 12 11 11 11 11 11 10 10 10 10 9 10 9 9 9 10 10 9 8 8 7 7 6
9 8 7 8 8 9 9 9 9 9 9 10 11 11 11 12 12 12 13 12 11 11 11 11 11 11 10 10 10 10 9 9 10 10 10 9 9 9 8 7 7 7 6
10 9 8 8 8 8 8 9 9 9 9 10 11 11 11 12 12 12 12 11 11 11 11 11 11 10 10 10 10 10 9 9 9 8 9 9 9 8 8 8 7 7 6
11 10 9 9 8 8 9 8 8 9 9 9 10 10 10 11 11 11 12 11 11 12 11 11 11 11 10 9 10 10 9 9 8 7 8 8 8 8 8 7 7 6 6
13 11 10 10 10 9 9 8 8 9 9 9 10 10 10 10 11 11 11 11 11 11 12 12 11 11 11 10 10 9 9 9 8 7 7 8 7 7 7 7 6 6 5

GFSSE_850_temp_054.txt.gz
Temp
15 16 18 16 16 17 18 18 18 18 17 16 16 16 16 16 16 16 16 15 15 14 14 15 13 12 12 14 14 14 13 13 12 11 10 11 11 12 12 12 12 12 12
15 15 15 16 16 17 17 18 18 17 17 16 15 16 16 16 16 15 15 14 14 14 14 14 14 14 14 14 14 14 14 13 12 11 10 10 11 11 11 11 11 11 11
15 15 15 16 17 17 16 17 17 17 16 16 15 15 16 15 15 14 15 15 14 14 11 12 13 13 13 14 14 14 14 14 13 12 11 10 10 10 10 11 10 9 10
15 15 15 15 16 16 16 17 16 16 17 17 16 15 15 15 14 15 15 15 14 12 11 11 13 13 13 13 13 13 13 13 13 12 10 9 9 9 9 9 9 9 7
14 15 15 15 15 15 16 16 16 17 17 15 16 15 14 14 14 14 14 14 14 12 13 13 13 13 13 13 13 13 13 13 13 12 10 9 9 9 9 10 8 7 8
14 14 14 14 15 15 15 15 15 16 16 15 15 14 14 14 14 13 14 14 14 13 13 13 13 12 12 12 12 12 12 13 13 13 12 9 8 8 9 9 9 9 9
14 14 14 14 15 15 15 15 15 15 15 15 15 14 13 13 13 13 13 13 14 13 13 12 12 12 12 12 12 12 12 12 13 13 12 11 10 9 8 9 9 9 8
14 15 14 14 14 14 15 14 15 14 14 14 16 13 13 13 13 13 14 14 14 13 13 13 12 12 12 12 12 12 12 12 12 12 12 12 11 10 10 8 8 8 8
14 14 14 14 13 12 12 12 14 12 13 14 15 13 13 13 13 14 13 13 13 12 13 13 13 12 12 12 12 12 12 12 12 12 12 12 11 9 8 8 8 9 9
13 13 13 13 13 11 11 11 12 12 13 14 14 14 13 13 13 12 12 12 12 12 13 13 13 12 12 12 12 12 12 12 12 12 12 10 7 7 6 8 10 10 11
12 13 13 12 12 11 11 11 10 10 12 13 13 14 13 13 12 12 12 12 12 12 12 12 12 12 12 12 12 12 12 12 12 12 11 10 7 7 7 10 10 10 9
12 12 11 13 12 12 10 10 9 9 11 12 14 13 13 12 12 12 12 12 12 12 12 12 12 12 12 12 12 12 12 12 12 11 11 9 8 7 8 9 8 7 7
12 11 12 12 13 12 10 11 11 10 11 12 14 13 13 12 12 12 12 12 13 13 12 12 12 12 12 12 12 11 11 12 11 11 11 10 9 8 8 6 6 6 5
12 11 11 10 11 11 11 10 11 10 10 10 13 13 12 12 12 12 12 12 12 12 12 12 12 12 12 12 11 11 11 11 11 11 10 10 9 8 7 6 6 5 5
11 11 11 11 11 11 10 10 11 9 9 10 12 12 13 12 12 12 12 12 13 12 12 12 12 12 12 12 11 11 11 11 11 11 10 10 10 9 7 7 6 6 6
11 11 11 11 10 10 11 10 10 10 10 10 10 11 13 12 12 12 12 13 12 12 12 12 12 12 12 12 12 12 11 11 11 11 10 10 10 9 7 7 7 6 6
10 11 10 11 11 10 10 10 10 10 10 10 10 11 12 12 12 12 12 12 12 12 11 11 11 12 12 12 11 11 11 11 11 11 10 10 10 9 8 7 7 7 7
10 10 10 10 10 10 10 10 10 10 10 10 11 11 12 12 12 12 12 12 12 12 11 11 12 11 11 11 11 11 11 11 11 10 10 10 10 9 9 8 8 7 7
10 10 10 10 10 10 9 9 9 10 11 11 11 12 12 12 12 13 12 12 12 12 11 11 12 11 11 11 11 11 11 11 10 11 10 10 10 9 9 9 9 8 8
9 9 9 10 10 10 10 9 9 9 10 11 11 12 12 12 12 12 12 11 12 11 11 11 11 11 11 10 10 10 10 10 10 10 10 10 10 9 9 9 9 8 8
8 9 9 9 9 9 9 9 9 9 10 11 12 12 12 12 12 12 11 11 11 11 12 11 11 11 11 10 10 10 10 10 10 10 10 10 10 9 8 8 8 8 8
8 8 8 9 9 10 9 9 9 9 10 10 10 11 11 11 11 11 11 11 11 12 11 11 11 11 11 10 10 10 9 10 10 10 10 10 9 9 9 8 8 8 8
9 7 7 8 8 9 9 8 9 9 10 9 9 10 11 11 10 11 10 11 10 11 11 11 11 11 11 10 10 10 9 9 10 10 10 10 9 9 9 8 9 8 8
11 9 7 8 8 9 9 9 9 8 10 9 9 9 10 11 10 11 11 11 11 11 11 11 11 11 11 10 10 10 10 10 10 9 9 9 9 9 9 8 8 8 8
12 11 9 8 8 9 9 9 9 8 9 10 10 9 10 10 10 11 11 11 11 11 12 11 11 11 10 10 10 9 9 10 9 9 9 9 8 8 8 8 8 8 7
12 12 11 9 8 8 8 8 9 9 10 10 10 10 11 11 11 11 11 11 11 12 12 11 11 11 11 10 10 9 9 9 9 9 9 9 8 8 8 7 7 7 6

GFSSE_850_temp_057.txt.gz
Temp
16 16 17 17 18 18 18 17 18 17 17 17 17 17 17 16 16 16 15 15 13 13 12 12 11 12 11 11 13 12 12 12 12 12 12 12 12 12 12 12 12 12 12
16 16 16 16 16 17 17 17 17 17 17 17 17 17 16 15 15 15 15 14 14 14 12 12 11 11 13 13 13 12 12 12 11 11 12 11 11 12 12 12 11 11 11
15 16 15 15 15 16 17 17 17 17 17 17 16 17 16 15 15 15 15 14 14 14 13 12 11 12 13 13 13 13 13 13 13 12 10 10 11 12 12 12 12 12 12
15 15 15 15 15 16 17 17 16 17 17 16 17 17 16 14 14 15 14 14 14 14 13 12 13 13 13 14 14 14 14 14 13 12 10 9 9 11 12 12 12 12 12
14 15 15 15 15 16 16 17 17 16 16 16 16 16 15 14 14 14 14 13 13 12 11 12 13 13 13 13 14 13 13 13 13 11 9 9 9 8 8 8 8 9 9
14 15 14 15 15 16 16 16 16 16 16 15 15 16 14 15 14 14 13 12 12 11 12 13 13 13 13 13 13 13 13 13 11 9 8 8 8 7 7 8 9 9 8
14 14 15 14 14 15 15 15 15 15 15 15 15 15 15 14 13 13 12 11 12 12 13 13 13 13 13 12 13 13 12 13 11 9 8 8 7 7 7 7 8 9 8
14 14 13 14 14 15 14 15 15 14 15 15 15 14 15 14 13 13 12 12 13 13 12 12 12 12 12 12 12 12 12 12 12 9 8 8 7 7 8 9 8 10 9
13 14 13 12 13 13 13 14 13 14 13 14 14 14 14 14 13 12 13 12 12 13 12 12 12 12 12 12 12 12 12 12 12 10 8 8 7 7 8 8 9 10 10
13 14 13 12 12 12 12 12 12 12 13 13 14 13 13 14 13 13 12 12 12 13 12 12 12 12 12 12 12 12 12 12 12 10 8 7 7 7 7 8 8 10 11
13 13 13 12 11 11 11 11 11 11 11 13 13 13 14 14 13 12 12 12 13 12 12 12 12 12 12 11 12 12 12 12 11 9 8 8 7 6 7 8 10 10 10
13 14 13 12 12 12 12 11 10 11 11 12 13 13 14 13 12 12 12 12 13 13 12 12 12 12 12 11 11 12 12 12 11 9 8 8 7 7 8 10 10 10 10
12 14 12 12 13 12 11 11 10 9 10 11 12 13 13 12 12 12 12 12 12 12 12 12 12 12 12 12 12 12 12 11 11 10 9 8 7 7 7 8 8 9 9
12 12 12 11 12 11 10 10 9 9 9 10 13 12 12 12 12 12 12 12 12 12 12 12 12 12 12 12 12 12 12 11 11 10 9 9 7 7 7 6 6 6 6
11 11 11 11 12 11 11 9 9 9 9 10 12 12 12 12 12 13 12 12 12 12 12 12 12 12 12 12 12 11 12 11 11 11 9 9 8 7 8 7 7 6 6
10 11 11 11 11 11 10 9 8 9 9 10 11 12 12 12 12 12 12 12 12 12 12 12 12 12 12 12 12 11 11 11 11 10 10 9 9 8 8 8 7 7 6
10 10 11 11 11 10 10 10 10 9 9 9 10 12 12 11 12 12 12 12 12 12 12 12 12 12 12 12 12 11 11 11 11 10 11 10 10 10 9 8 8 7 7
10 10 10 10 10 10 10 10 10 9 9 9 10 11 11 12 12 12 11 11 11 12 11 12 12 12 12 12 12 11 11 11 11 11 10 10 10 10 10 9 8 8 7
10 10 10 10 10 10 10 9 9 10 9 9 10 11 11 11 12 12 11 11 11 12 11 11 11 11 11 12 11 11 11 11 10 10 10 10 10 10 9 9 8 7 7
9 10 10 10 10 10 10 9 9 10 9 9 10 11 11 11 11 12 12 12 12 11 11 11 11 11 11 11 11 11 10 11 10 10 10 10 10 9 9 9 8 8 8
9 9 10 9 9 10 10 9 9 9 10 10 10 11 11 11 11 11 11 11 12 11 11 11 11 11 11 11 10 10 10 10 10 10 10 10 10 9 9 9 9 8 8
9 9 9 9 9 9 9 9 9 9 9 9 10 11 11 11 11 11 11 11 11 11 11 11 11 11 11 11 10 10 9 10 10 10 10 10 10 10 9 9 9 8 8
9 8 8 10 9 10 9 9 9 9 8 9 10 10 11 11 11 11 11 11 12 11 11 12 11 11 11 11 10 10 10 10 10 11 11 10 10 10 9 9 8 8 8
10 9 7 8 9 9 9 9 9 9 9 10 10 10 10 10 10 11 11 12 10 10 11 11 11 11 11 11 10 10 10 10 10 9 10 10 10 10 9 9 8 8 8
10 10 9 8 8 8 9 9 9 9 9 8 9 11 10 10 10 10 11 10 9 10 10 11 11 11 11 11 11 10 10 9 9 9 8 9 9 9 9 8 8 8 8
11 10 9 9 8 8 9 9 9 9 9 8 10 10 10 9 10 10 10 10 9 10 11 11 10 10 10 10 10 10 9 9 9 9 8 9 9 9 9 8 8 7 7